User: anonymous   Login
Location: gie�en
(50.5804°N, 8.6692°E)
Time: 15:11:11
(UTC+01:00)
Language:

Tiangong - Orbit

View from above orbital plane
View from above orbital plane
View from above satellite
View from above satellite

Ground track
Ground track

The orbit data is extracted from the following two-line orbital elements,

1 48274U 21035A   21338.26507769  .00013484  00000-0  15452-3 0  9995
2 48274  41.4702 326.2564 0003228 154.1769 333.5328 15.61850089 34299
Epoch (UTC): 04 December 2021 06:21:42
Eccentricity: 0.0003228
inclination: 41.4702°
perigee height: 380 km
apogee height: 384 km
right ascension of ascending node: 326.2564°
argument of perigee: 154.1769°
revolutions per day: 15.61850089
mean anomaly at epoch: 333.5328°
orbit number at epoch: 3429

The dashed part of the orbit path shows where the satellite is in the earth's shadow,  

DLR